KIND Airport Diagram

We have created a template for each of the higher traffic airports in the vZID airspace. They include KCMH, KCRW, KCVG, KDAY, KIND, KLEX and KSDF. You wil find usefull information including the airport diagram, weather, and specific airport procedures.

KIND Weather

[Source: ADDS]
METAR
KIND 211854Z 08013KT 10SM OVC055 13/09 A3003 RMK AO2 RAE16 SLP170 P0004 T01280094 =
KIND 211725Z 2118/2224 10013KT P6SM VCSH OVC045 FM212100 09013KT P6SM BKN045 FM220500 12014KT P6SM BKN250 WS020/15040KT FM221000 14011KT P6SM VCSH SCT030 BKN090 FM221800 21012KT P6SM SCT040
TAF
KIND 211725Z 2118/2224 10013KT P6SM VCSH OVC045 FM212100 09013KT P6SM BKN045 FM220500 12014KT P6SM BKN250 WS020/15040KT FM221000 14011KT P6SM VCSH SCT030 BKN090 FM221800 21012KT P6SM SCT040 =

KIND Operations

 Calm Wind Configuration is runways 23L/R, up to and including 10kts.

Runway 23L typically departs South and East, Runway 23R typically departs North and West.

FedEx pilots should expect runway 23L or 5R.

Contraflow (noise abatement) procedures from 2200L to 0600L, landing Runway 5R, departing Runway 23R, weather permitted.

New Scenery is available at FlightSim.com and Blueprint Simulations. On initial contact, arriving aircraft should notify the the controller if their scenery has the Midfield Terminal.

FBOs: Signature is near taxiway D and Millionaire is near taxiway A, both are North of taxiway M.

 

JSN Epic template designed by JoomlaShine.com